星链-33634 (STARLINK-33634)

导读 | 豆包AI

STARLINK-33634是美国SpaceX公司星链(Starlink)星座的一员,于2025年3月26日发射升空。作为低轨互联网通信卫星,它延续星链设计,采用平板构型与氪工质霍尔推进,搭载Ku/Ka波段通信载荷,支持光学星间链路,可自主避撞,服务全球宽带互联。该卫星在近地轨道运行,设计寿命约5-7年,退役后将主动离轨坠入大气层烧毁,减少空间碎片影响,助力星链星座全球覆盖能力的进一步完善。

Basic Information
目录编号:
63377
目录名称:
STARLINK-33634
国际标识:
2025-063Q
轨道中心:
EARTH
卫星名称:
星链-33634
卫星全名:
星链-33634 (STARLINK-33634)
卫星状态:
在轨 (已飞行399 天)
发射日期:
2025-03-26 UTC
国别 :
美国 (US)
星等 :
--
Orbit Information
数据来源 国际轨道数据 AOE轨道数据
星历时间 2026-04-29T18:48:23+0800
10小时前
查看轨道信息
2026-04-28T08:00:00+0800
1天前
查看轨道信息
半长轴 6853.336km 6853.393km
偏心率 0.000129 0.0001226
轨道倾角 53.159° 53.159°
近地点辐角 70.809° 71.069°
升交点赤经 176.503° 183.241°
平近点角 289.305° 215.469°
近地点 474.314km 474.415km
远地点 476.084km 476.097km
周期 94.105分钟 94.106分钟
每日圈数 15.302055 15.301863
Detailed Information
固有亮度:
5
最大亮度:
2.5
卫星平台:
Starlink V1.0
覆盖范围:
全球
运营商:
太空探索技术公司
运营商所在国:
美国
制造商(研发单位):
太空探索技术公司
制造商所在国:
美国
使用方式:
暂无
Satellite Introduction
Starlink 计划是 SpaceX 推出的全球卫星互联网项目,通过发射低轨道卫星,为全球尤其是偏远地区提供高速、低延迟的互联网服务。自 2019 年起,Starlink 已部署数千颗卫星,旨在缩小全球数字鸿沟,推动互联网普及。该项目还为军事、航空等行业提供通信支持,带来广泛经济效益。
2D Orbit Map
3D Orbit Map
Orbit Altitude Analysis Chart
Orbit Inclination Analysis Chart
Orbit Comprehensive Analysis Chart
View Comprehensive Chart